Location: Boiro
(42.6475°N, 8.8834°W)
Time: 02:48:49
(UTC+01:00)

Vanguard 2 - Pass Details

Date: 05 December 2021
Orbit: 553 x 2936 km, 32.9° (Epoch: 20 January)

Event Time Altitude Azimuth Distance (km) Brightness Sun altitude
Rises 13:09:47 0° 203° (SSW) 2,709 11.4 24.8°
Reaches altitude 10° 13:14:30 10° 152° (SSE) 1,965 10.9 24.9°
Maximum altitude 13:14:38 10° 150° (SSE) 1,971 10.9 24.9°
Drops below altitude 10° 13:14:46 10° 148° (SSE) 1,979 10.8 24.9°
Sets 13:20:19 0° 100° (E) 3,326 10.9 24.9°
